Time,TemperatureF,DewpointF,PressureIn,WindDirection,WindDirectionDegrees,WindSpeedMPH,WindSpeedGustMPH,Humidity,HourlyPrecipIn,Conditions,Clouds,dailyrainin,SoftwareType,DateUTC
2013-01-27 00:04:00,35.6,31.5,30.09,SW,225,0.0,-999.0,85,-99.99,,,0.02,Acu-Link.com,2013-01-27 02:04:00,
2013-01-27 00:19:00,35.2,31.2,30.08,North,0,0.0,-999.0,85,-99.99,,,0.02,Acu-Link.com,2013-01-27 02:19:00,
2013-01-27 00:34:00,34.7,31.5,30.09,North,0,0.0,-999.0,88,-99.99,,,0.02,Acu-Link.com,2013-01-27 02:34:00,
2013-01-27 00:49:00,34.9,30.3,30.10,NNW,337,0.0,-999.0,83,-99.99,,,0.02,Acu-Link.com,2013-01-27 02:49:00,
2013-01-27 01:04:00,34.2,31.3,30.10,South,180,0.0,-999.0,89,-99.99,,,0.02,Acu-Link.com,2013-01-27 03:04:00,
2013-01-27 01:20:00,33.4,31.4,30.11,West,270,0.0,-999.0,92,-99.99,,,0.02,Acu-Link.com,2013-01-27 03:20:00,
2013-01-27 01:35:00,32.9,32.4,30.11,NNW,337,0.0,-999.0,98,-99.99,,,0.02,Acu-Link.com,2013-01-27 03:35:00,
2013-01-27 01:50:00,32.5,32.0,30.12,SSW,202,0.0,-999.0,98,-99.99,,,0.02,Acu-Link.com,2013-01-27 03:50:00,
2013-01-27 02:05:00,32.0,31.5,30.12,NNW,337,0.0,-999.0,98,-99.99,,,0.02,Acu-Link.com,2013-01-27 04:05:00,
2013-01-27 02:21:00,31.6,31.1,30.12,WNW,292,0.0,-999.0,98,-99.99,,,0.02,Acu-Link.com,2013-01-27 04:21:00,
2013-01-27 02:36:00,31.1,30.6,30.12,NNW,337,0.0,-999.0,98,-99.99,,,0.02,Acu-Link.com,2013-01-27 04:36:00,
2013-01-27 02:51:00,30.6,30.1,30.12,NNW,337,0.0,-999.0,98,-99.99,,,0.02,Acu-Link.com,2013-01-27 04:51:00,
2013-01-27 03:21:00,30.2,29.7,30.12,North,0,1.6,-999.0,98,-99.99,,,0.00,Acu-Link.com,2013-01-27 05:21:00,
2013-01-27 03:37:00,30.2,29.7,30.12,NW,315,1.6,-999.0,98,-99.99,,,0.00,Acu-Link.com,2013-01-27 05:37:00,
2013-01-27 03:52:00,30.2,29.7,30.13,NE,45,0.0,-999.0,98,-99.99,,,0.00,Acu-Link.com,2013-01-27 05:52:00,
2013-01-27 04:07:00,30.0,29.5,30.13,NNE,22,0.0,-999.0,98,-99.99,,,0.00,Acu-Link.com,2013-01-27 06:07:00,
2013-01-27 04:22:00,29.8,29.3,30.14,SW,225,0.0,-999.0,98,-99.99,,,0.00,Acu-Link.com,2013-01-27 06:22:00,
2013-01-27 04:37:00,29.5,29.0,30.14,SSE,157,0.0,-999.0,98,-99.99,,,0.00,Acu-Link.com,2013-01-27 06:37:00,
2013-01-27 04:53:00,29.7,29.2,30.15,North,0,2.2,-999.0,98,-99.99,,,0.00,Acu-Link.com,2013-01-27 06:53:00,
2013-01-27 05:08:00,29.5,29.0,30.16,NW,315,0.0,-999.0,98,-99.99,,,0.00,Acu-Link.com,2013-01-27 07:08:00,
2013-01-27 05:23:00,29.8,29.3,30.16,North,0,0.0,-999.0,98,-99.99,,,0.00,Acu-Link.com,2013-01-27 07:23:00,
2013-01-27 05:38:00,30.6,30.1,30.17,SW,225,0.0,-999.0,98,-99.99,,,0.00,Acu-Link.com,2013-01-27 07:38:00,
2013-01-27 05:54:00,30.9,30.4,30.18,West,270,0.0,-999.0,98,-99.99,,,0.00,Acu-Link.com,2013-01-27 07:54:00,
2013-01-27 06:09:00,31.6,31.1,30.18,WNW,292,0.0,-999.0,98,-99.99,,,0.00,Acu-Link.com,2013-01-27 08:09:00,
2013-01-27 06:24:00,32.0,31.5,30.19,NNW,337,0.0,-999.0,98,-99.99,,,0.00,Acu-Link.com,2013-01-27 08:24:00,
2013-01-27 06:39:00,32.5,32.0,30.19,ENE,67,0.0,-999.0,98,-99.99,,,0.00,Acu-Link.com,2013-01-27 08:39:00,
2013-01-27 06:54:00,32.7,32.2,30.20,NNE,22,0.0,-999.0,98,-99.99,,,0.00,Acu-Link.com,2013-01-27 08:54:00,
2013-01-27 07:17:00,32.7,32.2,30.20,NNE,22,0.0,-999.0,98,-99.99,,,0.00,Acu-Link.com,2013-01-27 09:17:00,
2013-01-27 07:32:00,32.2,31.7,30.19,WNW,292,0.0,-999.0,98,-99.99,,,0.00,Acu-Link.com,2013-01-27 09:32:00,
2013-01-27 07:47:00,31.6,31.1,30.20,NNW,337,0.0,-999.0,98,-99.99,,,0.00,Acu-Link.com,2013-01-27 09:47:00,
2013-01-27 08:02:00,31.8,31.3,30.21,NE,45,0.0,-999.0,98,-99.99,,,0.00,Acu-Link.com,2013-01-27 10:02:00,
2013-01-27 08:17:00,32.2,31.7,30.21,North,0,0.0,-999.0,98,-99.99,,,0.00,Acu-Link.com,2013-01-27 10:17:00,
2013-01-27 08:32:00,32.4,31.9,30.22,WNW,292,0.0,-999.0,98,-99.99,,,0.00,Acu-Link.com,2013-01-27 10:32:00,
2013-01-27 08:48:00,32.2,31.7,30.23,NNW,337,0.0,-999.0,98,-99.99,,,0.00,Acu-Link.com,2013-01-27 10:48:00,
2013-01-27 09:03:00,31.8,31.3,30.23,East,90,0.0,-999.0,98,-99.99,,,0.00,Acu-Link.com,2013-01-27 11:03:00,
2013-01-27 09:18:00,31.5,31.0,30.24,East,90,0.0,-999.0,98,-99.99,,,0.00,Acu-Link.com,2013-01-27 11:18:00,
2013-01-27 09:33:00,31.3,30.8,30.25,SSE,157,0.0,-999.0,98,-99.99,,,0.00,Acu-Link.com,2013-01-27 11:33:00,
2013-01-27 09:48:00,31.1,30.6,30.25,NE,45,0.0,-999.0,98,-99.99,,,0.00,Acu-Link.com,2013-01-27 11:48:00,
2013-01-27 10:04:00,30.9,30.4,30.27,NNE,22,0.0,-999.0,98,-99.99,,,0.00,Acu-Link.com,2013-01-27 12:04:00,
2013-01-27 10:19:00,31.1,30.6,30.28,West,270,0.0,-999.0,98,-99.99,,,0.00,Acu-Link.com,2013-01-27 12:19:00,
2013-01-27 10:34:00,31.1,30.6,30.28,NNE,22,0.0,-999.0,98,-99.99,,,0.00,Acu-Link.com,2013-01-27 12:34:00,
2013-01-27 10:49:00,31.1,30.6,30.28,East,90,0.0,-999.0,98,-99.99,,,0.00,Acu-Link.com,2013-01-27 12:49:00,
2013-01-27 11:04:00,31.6,31.1,30.29,East,90,0.0,-999.0,98,-99.99,,,0.00,Acu-Link.com,2013-01-27 13:04:00,
2013-01-27 11:20:00,34.0,33.5,30.29,ENE,67,0.0,-999.0,98,-99.99,,,0.00,Acu-Link.com,2013-01-27 13:20:00,
2013-01-27 11:35:00,35.1,34.6,30.29,NE,45,0.0,-999.0,98,-99.99,,,0.00,Acu-Link.com,2013-01-27 13:35:00,
2013-01-27 11:50:00,35.6,35.1,30.30,South,180,2.2,-999.0,98,-99.99,,,0.00,Acu-Link.com,2013-01-27 13:50:00,
2013-01-27 12:05:00,36.9,36.3,30.31,East,90,1.1,-999.0,98,-99.99,,,0.00,Acu-Link.com,2013-01-27 14:05:00,
2013-01-27 12:20:00,36.9,36.3,30.31,North,0,3.1,-999.0,98,-99.99,,,0.00,Acu-Link.com,2013-01-27 14:20:00,
2013-01-27 12:36:00,37.2,36.4,30.31,NE,45,3.8,-999.0,97,-99.99,,,0.00,Acu-Link.com,2013-01-27 14:36:00,
2013-01-27 12:51:00,37.8,36.2,30.33,SE,135,4.3,-999.0,94,-99.99,,,0.00,Acu-Link.com,2013-01-27 14:51:00,
2013-01-27 13:06:00,38.8,36.4,30.32,SW,225,3.1,-999.0,91,-99.99,,,0.00,Acu-Link.com,2013-01-27 15:06:00,
2013-01-27 13:21:00,39.4,36.4,30.32,South,180,2.7,-999.0,89,-99.99,,,0.00,Acu-Link.com,2013-01-27 15:21:00,
2013-01-27 13:37:00,40.5,36.3,30.32,SW,225,4.3,-999.0,85,-99.99,,,0.00,Acu-Link.com,2013-01-27 15:37:00,
2013-01-27 13:52:00,42.4,37.3,30.33,East,90,2.2,-999.0,82,-99.99,,,0.00,Acu-Link.com,2013-01-27 15:52:00,
2013-01-27 14:07:00,41.5,35.8,30.33,South,180,3.8,-999.0,80,-99.99,,,0.00,Acu-Link.com,2013-01-27 16:07:00,
2013-01-27 14:22:00,42.3,35.9,30.33,SSE,157,5.1,-999.0,78,-99.99,,,0.00,Acu-Link.com,2013-01-27 16:22:00,
2013-01-27 14:37:00,43.9,37.1,30.32,SE,135,3.8,-999.0,77,-99.99,,,0.00,Acu-Link.com,2013-01-27 16:37:00,
2013-01-27 14:53:00,42.3,35.6,30.31,SSW,202,4.3,-999.0,77,-99.99,,,0.00,Acu-Link.com,2013-01-27 16:53:00,
2013-01-27 15:08:00,43.7,36.0,30.31,South,180,4.3,-999.0,74,-99.99,,,0.00,Acu-Link.com,2013-01-27 17:08:00,
2013-01-27 15:23:00,46.2,38.7,30.30,ENE,67,2.7,-999.0,75,-99.99,,,0.00,Acu-Link.com,2013-01-27 17:23:00,
2013-01-27 15:38:00,44.8,36.7,30.28,East,90,2.2,-999.0,73,-99.99,,,0.00,Acu-Link.com,2013-01-27 17:38:00,
2013-01-27 15:53:00,44.4,35.6,30.28,NE,45,2.2,-999.0,71,-99.99,,,0.00,Acu-Link.com,2013-01-27 17:53:00,
2013-01-27 16:09:00,45.3,36.8,30.27,SSE,157,3.1,-999.0,72,-99.99,,,0.00,Acu-Link.com,2013-01-27 18:09:00,
2013-01-27 16:24:00,45.3,36.5,30.26,SE,135,2.2,-999.0,71,-99.99,,,0.00,Acu-Link.com,2013-01-27 18:24:00,
2013-01-27 16:39:00,46.2,36.6,30.27,SE,135,3.1,-999.0,69,-99.99,,,0.00,Acu-Link.com,2013-01-27 18:39:00,
2013-01-27 16:54:00,47.1,37.1,30.26,SSE,157,4.3,-999.0,68,-99.99,,,0.00,Acu-Link.com,2013-01-27 18:54:00,
2013-01-27 17:09:00,47.1,37.5,30.26,ESE,112,2.2,-999.0,69,-99.99,,,0.00,Acu-Link.com,2013-01-27 19:09:00,
2013-01-27 17:25:00,47.5,37.5,30.25,WNW,292,2.7,-999.0,68,-99.99,,,0.00,Acu-Link.com,2013-01-27 19:25:00,
2013-01-27 17:40:00,47.3,37.3,30.24,South,180,4.3,-999.0,68,-99.99,,,0.00,Acu-Link.com,2013-01-27 19:40:00,
2013-01-27 17:55:00,47.1,37.1,30.24,ESE,112,2.7,-999.0,68,-99.99,,,0.00,Acu-Link.com,2013-01-27 19:55:00,
2013-01-27 18:10:00,47.5,37.1,30.25,SSE,157,3.1,-999.0,67,-99.99,,,0.00,Acu-Link.com,2013-01-27 20:10:00,
2013-01-27 18:26:00,47.7,37.6,30.25,ESE,112,4.3,-999.0,68,-99.99,,,0.00,Acu-Link.com,2013-01-27 20:26:00,
2013-01-27 18:41:00,47.3,36.5,30.25,ESE,112,3.8,-999.0,66,-99.99,,,0.00,Acu-Link.com,2013-01-27 20:41:00,
2013-01-27 18:56:00,47.1,37.1,30.25,South,180,3.1,-999.0,68,-99.99,,,0.00,Acu-Link.com,2013-01-27 20:56:00,
2013-01-27 19:11:00,46.6,37.0,30.25,ESE,112,3.1,-999.0,69,-99.99,,,0.00,Acu-Link.com,2013-01-27 21:11:00,
2013-01-27 19:26:00,46.4,36.8,30.26,SSE,157,1.1,-999.0,69,-99.99,,,0.00,Acu-Link.com,2013-01-27 21:26:00,
2013-01-27 19:42:00,45.9,36.6,30.26,SSE,157,2.7,-999.0,70,-99.99,,,0.00,Acu-Link.com,2013-01-27 21:42:00,
2013-01-27 19:57:00,45.7,36.5,30.27,ENE,67,2.7,-999.0,70,-99.99,,,0.00,Acu-Link.com,2013-01-27 21:57:00,
2013-01-27 20:12:00,45.0,35.8,30.26,SSE,157,3.1,-999.0,70,-99.99,,,0.00,Acu-Link.com,2013-01-27 22:12:00,
2013-01-27 20:27:00,44.4,36.0,30.28,SSE,157,2.7,-999.0,72,-99.99,,,0.00,Acu-Link.com,2013-01-27 22:27:00,
2013-01-27 20:42:00,44.2,35.8,30.27,NE,45,2.2,-999.0,72,-99.99,,,0.00,Acu-Link.com,2013-01-27 22:42:00,
2013-01-27 20:58:00,43.9,35.4,30.28,SSW,202,2.2,-999.0,72,-99.99,,,0.00,Acu-Link.com,2013-01-27 22:58:00,
2013-01-27 21:13:00,43.7,35.6,30.28,SSW,202,3.1,-999.0,73,-99.99,,,0.00,Acu-Link.com,2013-01-27 23:13:00,
2013-01-27 21:28:00,43.7,36.0,30.28,SE,135,2.7,-999.0,74,-99.99,,,0.00,Acu-Link.com,2013-01-27 23:28:00,
2013-01-27 21:43:00,43.5,35.8,30.28,NW,315,0.0,-999.0,74,-99.99,,,0.00,Acu-Link.com,2013-01-27 23:43:00,
2013-01-27 21:59:00,43.5,36.1,30.28,SSE,157,0.0,-999.0,75,-99.99,,,0.00,Acu-Link.com,2013-01-27 23:59:00,
2013-01-27 22:14:00,43.5,36.8,30.29,ESE,112,0.0,-999.0,77,-99.99,,,0.00,Acu-Link.com,2013-01-28 00:14:00,
2013-01-27 22:29:00,43.5,36.5,30.28,East,90,0.0,-999.0,76,-99.99,,,0.00,Acu-Link.com,2013-01-28 00:29:00,
2013-01-27 22:44:00,43.3,36.3,30.28,SE,135,1.6,-999.0,76,-99.99,,,0.00,Acu-Link.com,2013-01-28 00:44:00,
2013-01-27 22:59:00,43.3,36.6,30.28,East,90,0.0,-999.0,77,-99.99,,,0.00,Acu-Link.com,2013-01-28 00:59:00,
2013-01-27 23:15:00,43.3,36.6,30.29,East,90,0.0,-999.0,77,-99.99,,,0.00,Acu-Link.com,2013-01-28 01:15:00,
2013-01-27 23:30:00,43.3,36.6,30.29,East,90,0.0,-999.0,77,-99.99,,,0.00,Acu-Link.com,2013-01-28 01:30:00,
2013-01-27 23:45:00,43.3,36.6,30.29,SSE,157,0.0,-999.0,77,-99.99,,,0.00,Acu-Link.com,2013-01-28 01:45:00,